| time (UTC) | temp F | wind direction | speed MPH | gust MPH | rain 1hr in | rain 24hr in | rain mn in | humidity % | barometer mb |
| 20260505014007 | 58 | 277 | 1.0 | 6.0 | 0.00 | 0.00 | 0.00 | 52 | 1010.5 |
| 20260505013504 | 59 | 152 | 0.0 | 6.0 | 0.00 | 0.00 | 0.00 | 52 | 1010.4 |
| 20260505013017 | 59 | 276 | 1.0 | 5.0 | 0.00 | 0.00 | 0.00 | 51 | 1010.4 |
| 20260505012506 | 59 | 275 | 1.0 | 5.0 | 0.00 | 0.00 | 0.00 | 52 | 1010.3 |
| 20260505012009 | 59 | 123 | 1.0 | 3.0 | 0.00 | 0.00 | 0.00 | 51 | 1010.2 |
| 20260505011522 | 59 | 261 | 0.0 | 2.0 | 0.00 | 0.00 | 0.00 | 51 | 1010.1 |
| 20260505011007 | 59 | 353 | 0.0 | 4.0 | 0.00 | 0.00 | 0.00 | 50 | 1010.1 |
| 20260505010508 | 60 | 183 | 0.0 | 4.0 | 0.00 | 0.00 | 0.00 | 49 | 1010.1 |
| 20260505010024 | 60 | 139 | 1.0 | 4.0 | 0.00 | 0.00 | 0.00 | 49 | 1010.0 |
| 20260505005507 | 60 | 316 | 0.0 | 6.0 | 0.00 | 0.00 | 0.00 | 48 | 1009.9 |
| 20260505005012 | 61 | 240 | 1.0 | 6.0 | 0.00 | 0.00 | 0.00 | 47 | 1009.7 |
| 20260505004528 | 61 | 195 | 1.0 | 6.0 | 0.00 | 0.00 | 0.00 | 47 | 1009.7 |
| 20260505004008 | 61 | 308 | 1.0 | 5.0 | 0.00 | 0.00 | 0.00 | 47 | 1009.5 |
| 20260505003507 | 61 | 131 | 1.0 | 5.0 | 0.00 | 0.00 | 0.00 | 46 | 1009.5 |
| 20260505003020 | 61 | 84 | 1.0 | 11.0 | 0.00 | 0.00 | 0.00 | 47 | 1009.2 |
| 20260505002507 | 61 | 180 | 1.0 | 11.0 | 0.00 | 0.00 | 0.00 | 46 | 1009.1 |
| 20260505002003 | 61 | 360 | 1.0 | 4.0 | 0.00 | 0.00 | 0.00 | 46 | 1009.0 |
| 20260505001516 | 62 | 56 | 2.0 | 4.0 | 0.00 | 0.00 | 0.00 | 45 | 1008.8 |
| 20260505001006 | 62 | 338 | 1.0 | 4.0 | 0.00 | 0.00 | 0.00 | 46 | 1008.7 |
| 20260505000506 | 62 | 294 | 1.0 | 6.0 | 0.00 | 0.00 | 0.00 | 45 | 1008.6 |
| 20260505000024 | 62 | 27 | 1.0 | 6.0 | 0.00 | 0.00 | 0.00 | 45 | 1008.5 |
| 20260504235508 | 63 | 290 | 2.0 | 6.0 | 0.00 | 0.00 | 0.00 | 45 | 1008.3 |
| 20260504235002 | 63 | 196 | 1.0 | 6.0 | 0.00 | 0.00 | 0.00 | 44 | 1008.1 |
| 20260504234506 | 63 | 355 | 1.0 | 7.0 | 0.00 | 0.00 | 0.00 | 44 | 1008.1 |
| 20260504234002 | 63 | 323 | 2.0 | 7.0 | 0.00 | 0.00 | 0.00 | 43 | 1008.1 |
| 20260504233502 | 64 | 300 | 2.0 | 7.0 | 0.00 | 0.00 | 0.00 | 44 | 1008.0 |
| 20260504233010 | 64 | 272 | 2.0 | 7.0 | 0.00 | 0.00 | 0.00 | 43 | 1008.0 |
| 20260504232502 | 64 | 260 | 2.0 | 8.0 | 0.00 | 0.00 | 0.00 | 42 | 1007.9 |
| 20260504232005 | 65 | 89 | 2.0 | 8.0 | 0.00 | 0.00 | 0.00 | 42 | 1007.8 |
| 20260504231517 | 65 | 210 | 2.0 | 5.0 | 0.00 | 0.00 | 0.00 | 41 | 1007.8 |
| 20260504231005 | 65 | 264 | 1.0 | 6.0 | 0.00 | 0.00 | 0.00 | 41 | 1007.7 |
| 20260504230505 | 66 | 292 | 2.0 | 6.0 | 0.00 | 0.00 | 0.00 | 39 | 1007.6 |
| 20260504230020 | 66 | 185 | 1.0 | 7.0 | 0.00 | 0.00 | 0.00 | 39 | 1007.4 |
| 20260504225511 | 66 | 293 | 2.0 | 8.0 | 0.00 | 0.00 | 0.00 | 39 | 1007.4 |
| 20260504225008 | 66 | 1 | 1.0 | 8.0 | 0.00 | 0.00 | 0.00 | 39 | 1007.3 |
| 20260504224525 | 67 | 238 | 2.0 | 7.0 | 0.00 | 0.00 | 0.00 | 37 | 1007.2 |
| 20260504224003 | 67 | 115 | 1.0 | 5.0 | 0.00 | 0.00 | 0.00 | 38 | 1007.2 |
| 20260504223503 | 67 | 255 | 2.0 | 5.0 | 0.00 | 0.00 | 0.00 | 37 | 1007.0 |
| 20260504223007 | 67 | 241 | 1.0 | 4.0 | 0.00 | 0.00 | 0.00 | 38 | 1007.1 |
| 20260504222504 | 68 | 255 | 1.0 | 6.0 | 0.00 | 0.00 | 0.00 | 37 | 1007.1 |
| 20260504222005 | 68 | 174 | 2.0 | 8.0 | 0.00 | 0.00 | 0.00 | 35 | 1007.0 |
| 20260504221512 | 69 | 47 | 1.0 | 8.0 | 0.00 | 0.00 | 0.00 | 36 | 1007.0 |
| 20260504221007 | 69 | 302 | 1.0 | 6.0 | 0.00 | 0.00 | 0.00 | 35 | 1007.0 |
| 20260504220506 | 70 | 326 | 2.0 | 7.0 | 0.00 | 0.00 | 0.00 | 33 | 1006.9 |
| 20260504220018 | 70 | 218 | 2.0 | 7.0 | 0.00 | 0.00 | 0.00 | 32 | 1006.9 |
| 20260504215506 | 70 | 282 | 2.0 | 8.0 | 0.00 | 0.00 | 0.00 | 31 | 1006.9 |
| 20260504215007 | 70 | 250 | 1.0 | 8.0 | 0.00 | 0.00 | 0.00 | 31 | 1006.8 |
| 20260504214523 | 70 | 297 | 3.0 | 8.0 | 0.00 | 0.00 | 0.00 | 31 | 1006.9 |
| 20260504214007 | 70 | 313 | 2.0 | 8.0 | 0.00 | 0.00 | 0.00 | 31 | 1006.9 |
| 20260504213507 | 70 | 275 | 2.0 | 6.0 | 0.00 | 0.00 | 0.00 | 31 | 1006.8 |
| 20260504213025 | 71 | 246 | 2.0 | 6.0 | 0.00 | 0.00 | 0.00 | 31 | 1006.9 |
| 20260504212503 | 71 | 284 | 4.0 | 7.0 | 0.00 | 0.00 | 0.00 | 29 | 1006.9 |
| 20260504212003 | 71 | 300 | 4.0 | 7.0 | 0.00 | 0.00 | 0.00 | 30 | 1006.9 |
| 20260504211510 | 71 | 285 | 3.0 | 7.0 | 0.00 | 0.00 | 0.00 | 30 | 1006.8 |
| 20260504211011 | 71 | 211 | 2.0 | 6.0 | 0.00 | 0.00 | 0.00 | 30 | 1006.9 |
| 20260504210506 | 70 | 286 | 3.0 | 6.0 | 0.00 | 0.00 | 0.00 | 31 | 1006.8 |
| 20260504210017 | 71 | 287 | 3.0 | 6.0 | 0.00 | 0.00 | 0.00 | 29 | 1006.8 |
| 20260504205511 | 71 | 30 | 3.0 | 6.0 | 0.00 | 0.00 | 0.00 | 29 | 1006.8 |
| 20260504205007 | 71 | 148 | 2.0 | 8.0 | 0.00 | 0.00 | 0.00 | 29 | 1006.7 |
| 20260504204519 | 71 | 288 | 2.0 | 8.0 | 0.00 | 0.00 | 0.00 | 31 | 1006.8 |
| 20260504204007 | 70 | 321 | 1.0 | 8.0 | 0.00 | 0.00 | 0.00 | 30 | 1006.7 |
| 20260504203510 | 70 | 112 | 3.0 | 9.0 | 0.00 | 0.00 | 0.00 | 30 | 1006.9 |
| 20260504203034 | 70 | 260 | 6.0 | 9.0 | 0.00 | 0.00 | 0.00 | 30 | 1006.8 |
| 20260504202508 | 70 | 221 | 3.0 | 12.0 | 0.00 | 0.00 | 0.00 | 30 | 1007.0 |
| 20260504202008 | 70 | 302 | 4.0 | 12.0 | 0.00 | 0.00 | 0.00 | 30 | 1006.9 |
| 20260504201509 | 70 | 295 | 3.0 | 11.0 | 0.00 | 0.00 | 0.00 | 28 | 1006.9 |
| 20260504201009 | 70 | 276 | 5.0 | 12.0 | 0.00 | 0.00 | 0.00 | 29 | 1007.0 |
| 20260504200503 | 70 | 295 | 5.0 | 12.0 | 0.00 | 0.00 | 0.00 | 28 | 1007.1 |
| 20260504200015 | 70 | 321 | 3.0 | 6.0 | 0.00 | 0.00 | 0.00 | 29 | 1006.9 |
| 20260504195506 | 70 | 139 | 3.0 | 10.0 | 0.00 | 0.00 | 0.00 | 29 | 1007.0 |
| 20260504195013 | 70 | 310 | 4.0 | 9.0 | 0.00 | 0.00 | 0.00 | 28 | 1007.0 |
| 20260504194519 | 69 | 252 | 4.0 | 9.0 | 0.00 | 0.00 | 0.00 | 31 | 1007.0 |
| 20260504194006 | 69 | 278 | 5.0 | 9.0 | 0.00 | 0.00 | 0.00 | 29 | 1007.1 |
| 20260504193509 | 70 | 251 | 6.0 | 9.0 | 0.00 | 0.00 | 0.00 | 28 | 1007.1 |
| 20260504193023 | 70 | 285 | 3.0 | 10.0 | 0.00 | 0.00 | 0.00 | 29 | 1007.2 |
| 20260504192508 | 70 | 250 | 5.0 | 9.0 | 0.00 | 0.00 | 0.00 | 29 | 1007.0 |
| 20260504192009 | 70 | 300 | 4.0 | 7.0 | 0.00 | 0.00 | 0.00 | 29 | 1007.1 |
| 20260504191528 | 69 | 309 | 4.0 | 9.0 | 0.00 | 0.00 | 0.00 | 28 | 1007.1 |
| 20260504191010 | 69 | 266 | 4.0 | 9.0 | 0.00 | 0.00 | 0.00 | 28 | 1007.2 |
| 20260504190504 | 69 | 290 | 5.0 | 9.0 | 0.00 | 0.00 | 0.00 | 27 | 1007.1 |
| 20260504190012 | 70 | 274 | 3.0 | 9.0 | 0.00 | 0.00 | 0.00 | 29 | 1007.2 |
| 20260504185503 | 69 | 278 | 6.0 | 10.0 | 0.00 | 0.00 | 0.00 | 28 | 1007.3 |
| 20260504185003 | 70 | 268 | 4.0 | 10.0 | 0.00 | 0.00 | 0.00 | 27 | 1007.5 |
| 20260504184518 | 70 | 281 | 4.0 | 10.0 | 0.00 | 0.00 | 0.00 | 28 | 1007.3 |
| 20260504184006 | 69 | 259 | 6.0 | 10.0 | 0.00 | 0.00 | 0.00 | 27 | 1007.4 |
| 20260504183508 | 69 | 252 | 4.0 | 11.0 | 0.00 | 0.00 | 0.00 | 29 | 1007.4 |
| 20260504183029 | 69 | 297 | 6.0 | 11.0 | 0.00 | 0.00 | 0.00 | 26 | 1007.5 |
| 20260504182510 | 70 | 273 | 5.0 | 8.0 | 0.00 | 0.00 | 0.00 | 27 | 1007.4 |
| 20260504182011 | 69 | 275 | 4.0 | 8.0 | 0.00 | 0.00 | 0.00 | 28 | 1007.5 |
| 20260504181524 | 69 | 227 | 5.0 | 12.0 | 0.00 | 0.00 | 0.00 | 28 | 1007.5 |
| 20260504181008 | 68 | 285 | 5.0 | 12.0 | 0.00 | 0.00 | 0.00 | 27 | 1007.6 |
| 20260504180509 | 69 | 270 | 5.0 | 12.0 | 0.00 | 0.00 | 0.00 | 28 | 1007.8 |
| 20260504180028 | 69 | 268 | 6.0 | 15.0 | 0.00 | 0.00 | 0.00 | 28 | 1007.6 |
| 20260504175508 | 68 | 290 | 6.0 | 15.0 | 0.00 | 0.00 | 0.00 | 30 | 1007.7 |
| 20260504175004 | 69 | 255 | 4.0 | 10.0 | 0.00 | 0.00 | 0.00 | 29 | 1007.7 |
| 20260504174516 | 68 | 271 | 3.0 | 10.0 | 0.00 | 0.00 | 0.00 | 29 | 1007.8 |
| 20260504174003 | 69 | 238 | 6.0 | 9.0 | 0.00 | 0.00 | 0.00 | 30 | 1007.9 |
| 20260504173507 | 69 | 136 | 4.0 | 9.0 | 0.00 | 0.00 | 0.00 | 28 | 1007.8 |
| 20260504173019 | 68 | 337 | 4.0 | 9.0 | 0.00 | 0.00 | 0.00 | 29 | 1008.0 |
| 20260504172507 | 69 | 285 | 4.0 | 9.0 | 0.00 | 0.00 | 0.00 | 28 | 1007.9 |
| 20260504172010 | 68 | 81 | 3.0 | 12.0 | 0.00 | 0.00 | 0.00 | 30 | 1007.9 |
| 20260504171523 | 68 | 294 | 7.0 | 12.0 | 0.00 | 0.00 | 0.00 | 30 | 1007.8 |
| 20260504171009 | 68 | 261 | 3.0 | 10.0 | 0.00 | 0.00 | 0.00 | 28 | 1007.8 |
| 20260504170508 | 67 | 267 | 5.0 | 11.0 | 0.00 | 0.00 | 0.00 | 29 | 1007.9 |
| 20260504151010 | 64 | 278 | 6.0 | 10.0 | 0.00 | 0.00 | 0.00 | 35 | 1009.0 |
| 20260504150507 | 64 | 258 | 4.0 | 10.0 | 0.00 | 0.00 | 0.00 | 33 | 1009.0 |
| 20260504141003 | 62 | 281 | 2.0 | 8.0 | 0.00 | 0.01 | 0.00 | 38 | 1009.6 |
| 20260504140507 | 62 | 276 | 4.0 | 8.0 | 0.00 | 0.01 | 0.00 | 39 | 1009.8 |
| 20260504130508 | 58 | 287 | 2.0 | 4.0 | 0.00 | 0.01 | 0.00 | 42 | 1010.6 |
| 20260504110506 | 48 | 269 | 0.0 | 2.0 | 0.00 | 0.01 | 0.00 | 55 | 1010.8 |
| 20260504100505 | 45 | 186 | 0.0 | 2.0 | 0.00 | 0.01 | 0.00 | 59 | 1010.8 |
| 20260504082007 | 45 | 181 | 0.0 | 2.0 | 0.00 | 0.01 | 0.00 | 57 | 1010.7 |
| 20260504081520 | 45 | 181 | 0.0 | 2.0 | 0.00 | 0.01 | 0.00 | 57 | 1010.6 |
| 20260504081007 | 45 | 181 | 0.0 | 2.0 | 0.00 | 0.01 | 0.00 | 56 | 1010.7 |
| 20260504080506 | 45 | 181 | 0.0 | 2.0 | 0.00 | 0.01 | 0.00 | 57 | 1010.6 |
| 20260504050506 | 40 | 268 | 0.0 | 2.0 | 0.00 | 0.01 | 0.00 | 73 | 1010.2 |
| 20260504050019 | 39 | 268 | 0.0 | 0.0 | 0.00 | 0.01 | 0.00 | 74 | 1010.3 |
| 20260504045507 | 38 | 268 | 0.0 | 2.0 | 0.00 | 0.01 | 0.00 | 77 | 1010.3 |
| 20260504045007 | 38 | 268 | 0.0 | 2.0 | 0.00 | 0.01 | 0.00 | 78 | 1010.3 |
| 20260504044524 | 37 | 268 | 0.0 | 2.0 | 0.00 | 0.01 | 0.00 | 78 | 1010.6 |
| 20260504044006 | 37 | 268 | 0.0 | 2.0 | 0.00 | 0.01 | 0.00 | 78 | 1010.4 |
| 20260504043504 | 36 | 268 | 0.0 | 0.0 | 0.00 | 0.01 | 0.00 | 78 | 1010.5 |
| 20260504043007 | 36 | 268 | 0.0 | 0.0 | 0.00 | 0.01 | 0.00 | 78 | 1010.4 |
| 20260504042504 | 36 | 268 | 0.0 | 0.0 | 0.00 | 0.01 | 0.00 | 78 | 1010.3 |
| 20260504042005 | 36 | 268 | 0.0 | 0.0 | 0.00 | 0.01 | 0.00 | 77 | 1010.3 |
| 20260504041514 | 37 | 268 | 0.0 | 1.0 | 0.00 | 0.01 | 0.00 | 77 | 1010.3 |
| 20260504041004 | 37 | 268 | 0.0 | 1.0 | 0.00 | 0.01 | 0.00 | 76 | 1010.2 |
| 20260504040503 | 37 | 268 | 0.0 | 0.0 | 0.00 | 0.01 | 0.00 | 76 | 1010.1 |
| 20260504040019 | 37 | 268 | 0.0 | 1.0 | 0.00 | 0.01 | 0.00 | 76 | 1010.1 |
| 20260504035506 | 37 | 268 | 0.0 | 1.0 | 0.00 | 0.01 | 0.01 | 75 | 1010.0 |
| 20260504035010 | 37 | 268 | 0.0 | 1.0 | 0.00 | 0.01 | 0.01 | 75 | 1010.0 |
| 20260504034521 | 37 | 268 | 0.0 | 0.0 | 0.00 | 0.01 | 0.01 | 75 | 1010.1 |
| 20260504034014 | 37 | 268 | 0.0 | 0.0 | 0.00 | 0.01 | 0.01 | 75 | 1009.9 |
| 20260504033508 | 38 | 268 | 0.0 | 0.0 | 0.00 | 0.01 | 0.01 | 74 | 1009.9 |
| 20260504033026 | 38 | 268 | 0.0 | 0.0 | 0.00 | 0.01 | 0.01 | 74 | 1009.9 |
| 20260504032504 | 38 | 268 | 0.0 | 0.0 | 0.00 | 0.01 | 0.01 | 74 | 1009.9 |
| 20260504032004 | 38 | 268 | 0.0 | 0.0 | 0.00 | 0.01 | 0.01 | 74 | 1009.9 |
| 20260504031510 | 39 | 268 | 0.0 | 0.0 | 0.00 | 0.01 | 0.01 | 73 | 1009.9 |
| 20260504031002 | 39 | 268 | 0.0 | 0.0 | 0.00 | 0.01 | 0.01 | 72 | 1009.9 |
| 20260504030506 | 39 | 268 | 0.0 | 0.0 | 0.00 | 0.01 | 0.01 | 72 | 1009.9 |
| 20260504030015 | 39 | 268 | 0.0 | 0.0 | 0.00 | 0.01 | 0.01 | 71 | 1009.8 |
| 20260504025504 | 40 | 268 | 0.0 | 0.0 | 0.00 | 0.01 | 0.01 | 71 | 1009.8 |
| 20260504025007 | 40 | 268 | 0.0 | 0.0 | 0.00 | 0.01 | 0.01 | 71 | 1009.8 |
| 20260504024520 | 40 | 268 | 0.0 | 0.0 | 0.00 | 0.01 | 0.01 | 71 | 1009.9 |
| 20260504024007 | 40 | 268 | 0.0 | 0.0 | 0.00 | 0.01 | 0.01 | 70 | 1009.9 |
| 20260504023506 | 41 | 268 | 0.0 | 0.0 | 0.00 | 0.01 | 0.01 | 68 | 1009.9 |
| 20260504023021 | 41 | 268 | 0.0 | 0.0 | 0.00 | 0.01 | 0.01 | 68 | 1009.9 |
| 20260504022511 | 41 | 268 | 0.0 | 0.0 | 0.00 | 0.01 | 0.01 | 69 | 1009.8 |
| 20260504022010 | 41 | 268 | 0.0 | 0.0 | 0.00 | 0.01 | 0.01 | 69 | 1009.7 |
| 20260504021529 | 41 | 268 | 0.0 | 0.0 | 0.00 | 0.01 | 0.01 | 69 | 1009.7 |
| 20260504021006 | 41 | 268 | 0.0 | 0.0 | 0.00 | 0.01 | 0.01 | 68 | 1009.8 |
| 20260504020505 | 42 | 268 | 0.0 | 0.0 | 0.00 | 0.01 | 0.01 | 66 | 1009.8 |
| 20260504020012 | 41 | 268 | 0.0 | 0.0 | 0.00 | 0.01 | 0.01 | 65 | 1009.8 |
| 20260504015505 | 41 | 268 | 0.0 | 0.0 | 0.00 | 0.01 | 0.01 | 63 | 1009.8 |
| 20260504015007 | 42 | 268 | 0.0 | 0.0 | 0.00 | 0.01 | 0.01 | 61 | 1009.8 |
| 20260504014524 | 42 | 268 | 0.0 | 0.0 | 0.00 | 0.01 | 0.01 | 60 | 1009.7 |